| time (UTC) | temp C | wind direction | speed KPH | gust KPH | rain 1hr cm | rain 24hr cm | rain mn cm | humidity % | barometer mb |
| 20260507041019 | 6 | 165 | 0.0 | 1.6 | 0.00 | 3.96 | 0.00 | 95 | 1010.3 |
| 20260507040516 | 6 | 164 | 0.0 | 1.6 | 0.00 | 3.96 | 0.00 | 95 | 1010.2 |
| 20260507040036 | 6 | 0 | 0.0 | 1.6 | 0.00 | 3.96 | 0.00 | 95 | 1010.3 |
| 20260507035519 | 6 | 243 | 0.0 | 1.6 | 0.00 | 3.96 | 3.96 | 95 | 1010.2 |
| 20260507035016 | 6 | 216 | 0.0 | 1.6 | 0.00 | 3.96 | 3.96 | 95 | 1010.4 |
| 20260507034537 | 6 | 217 | 0.0 | 6.4 | 0.00 | 3.96 | 3.96 | 95 | 1010.6 |
| 20260507034018 | 6 | 0 | 0.0 | 6.4 | 0.00 | 3.96 | 3.96 | 95 | 1010.5 |
| 20260507033518 | 6 | 203 | 1.6 | 6.4 | 0.00 | 3.96 | 3.96 | 95 | 1010.5 |
| 20260507033036 | 6 | 218 | 0.0 | 1.6 | 0.00 | 3.96 | 3.96 | 96 | 1010.5 |
| 20260507032523 | 6 | 255 | 0.0 | 3.2 | 0.00 | 3.96 | 3.96 | 95 | 1010.6 |
| 20260507032016 | 6 | 245 | 0.0 | 3.2 | 0.00 | 3.96 | 3.96 | 95 | 1010.5 |
| 20260507031532 | 6 | 117 | 0.0 | 1.6 | 0.00 | 3.96 | 3.96 | 95 | 1010.5 |
| 20260507031020 | 6 | 150 | 0.0 | 3.2 | 0.00 | 3.96 | 3.96 | 95 | 1010.7 |
| 20260507030519 | 6 | 163 | 0.0 | 3.2 | 0.00 | 3.96 | 3.96 | 95 | 1010.7 |
| 20260507030032 | 6 | 113 | 0.0 | 1.6 | 0.03 | 3.96 | 3.96 | 95 | 1010.7 |
| 20260507025516 | 6 | 0 | 0.0 | 0.0 | 0.03 | 3.99 | 3.96 | 95 | 1010.6 |
| 20260507025016 | 6 | 0 | 0.0 | 0.0 | 0.03 | 3.99 | 3.96 | 96 | 1010.7 |
| 20260507024532 | 6 | 0 | 0.0 | 0.0 | 0.03 | 3.99 | 3.96 | 95 | 1010.7 |
| 20260507024023 | 6 | 0 | 0.0 | 0.0 | 0.05 | 3.99 | 3.96 | 95 | 1010.6 |
| 20260507023525 | 6 | 0 | 0.0 | 0.0 | 0.05 | 3.99 | 3.96 | 95 | 1010.7 |
| 20260507023040 | 6 | 0 | 0.0 | 0.0 | 0.05 | 3.99 | 3.96 | 95 | 1010.8 |
| 20260507022520 | 6 | 0 | 0.0 | 0.0 | 0.05 | 3.99 | 3.96 | 95 | 1010.9 |
| 20260507022018 | 6 | 0 | 0.0 | 0.0 | 0.05 | 3.99 | 3.96 | 95 | 1010.9 |
| 20260507021536 | 6 | 0 | 0.0 | 0.0 | 0.08 | 3.99 | 3.96 | 95 | 1010.9 |
| 20260507021022 | 6 | 0 | 0.0 | 0.0 | 0.10 | 3.99 | 3.96 | 95 | 1010.8 |
| 20260507020519 | 6 | 0 | 0.0 | 0.0 | 0.10 | 3.99 | 3.96 | 95 | 1010.9 |
| 20260507020034 | 6 | 0 | 0.0 | 0.0 | 0.08 | 3.96 | 3.94 | 95 | 1010.9 |
| 20260507015517 | 6 | 0 | 0.0 | 0.0 | 0.10 | 3.96 | 3.94 | 95 | 1010.9 |
| 20260507015020 | 6 | 0 | 0.0 | 0.0 | 0.10 | 3.96 | 3.94 | 95 | 1011.0 |
| 20260507014542 | 6 | 0 | 0.0 | 0.0 | 0.10 | 3.96 | 3.94 | 95 | 1010.9 |
| 20260507014019 | 6 | 0 | 0.0 | 0.0 | 0.10 | 3.94 | 3.91 | 95 | 1010.7 |
| 20260507013519 | 6 | 0 | 0.0 | 0.0 | 0.10 | 3.94 | 3.91 | 95 | 1010.8 |
| 20260507013042 | 6 | 0 | 0.0 | 0.0 | 0.10 | 3.94 | 3.91 | 95 | 1010.8 |
| 20260507012517 | 6 | 0 | 0.0 | 0.0 | 0.13 | 3.94 | 3.91 | 95 | 1010.8 |
| 20260507012017 | 6 | 0 | 0.0 | 1.6 | 0.10 | 3.91 | 3.89 | 95 | 1010.7 |
| 20260507011532 | 6 | 0 | 0.0 | 1.6 | 0.10 | 3.91 | 3.89 | 95 | 1010.8 |
| 20260507011016 | 6 | 0 | 0.0 | 3.2 | 0.08 | 3.89 | 3.86 | 95 | 1010.8 |
| 20260507010517 | 7 | 0 | 0.0 | 3.2 | 0.08 | 3.89 | 3.86 | 95 | 1010.8 |
| 20260507010034 | 7 | 0 | 0.0 | 1.6 | 0.10 | 3.89 | 3.86 | 95 | 1010.6 |
| 20260507005523 | 7 | 0 | 0.0 | 1.6 | 0.08 | 3.86 | 3.84 | 95 | 1010.6 |
| 20260507005015 | 7 | 0 | 0.0 | 1.6 | 0.08 | 3.86 | 3.84 | 95 | 1010.4 |
| 20260507004541 | 7 | 0 | 0.0 | 0.0 | 0.10 | 3.86 | 3.84 | 95 | 1010.4 |
| 20260507004017 | 7 | 0 | 0.0 | 1.6 | 0.08 | 3.84 | 3.81 | 95 | 1010.4 |
| 20260507003518 | 7 | 0 | 0.0 | 1.6 | 0.08 | 3.84 | 3.81 | 95 | 1010.2 |
| 20260507003034 | 7 | 154 | 0.0 | 1.6 | 0.10 | 3.84 | 3.81 | 95 | 1010.2 |
| 20260507002519 | 7 | 285 | 0.0 | 3.2 | 0.08 | 3.81 | 3.78 | 95 | 1010.0 |
| 20260507002019 | 7 | 126 | 0.0 | 3.2 | 0.08 | 3.81 | 3.78 | 95 | 1009.9 |
| 20260507001531 | 7 | 0 | 0.0 | 3.2 | 0.08 | 3.81 | 3.78 | 95 | 1009.8 |
| 20260507001018 | 7 | 150 | 1.6 | 3.2 | 0.08 | 3.81 | 3.78 | 95 | 1009.6 |
| 20260507000518 | 7 | 0 | 0.0 | 4.8 | 0.08 | 3.81 | 3.78 | 95 | 1009.6 |
| 20260507000038 | 7 | 173 | 0.0 | 4.8 | 0.05 | 3.78 | 3.76 | 95 | 1009.4 |
| 20260506235519 | 7 | 200 | 0.0 | 3.2 | 0.05 | 3.78 | 3.76 | 95 | 1009.3 |
| 20260506235016 | 7 | 245 | 0.0 | 1.6 | 0.03 | 3.76 | 3.73 | 95 | 1009.1 |
| 20260506234537 | 8 | 117 | 0.0 | 1.6 | 0.03 | 3.76 | 3.73 | 95 | 1009.1 |
| 20260506234019 | 8 | 0 | 0.0 | 0.0 | 0.03 | 3.76 | 3.73 | 95 | 1009.1 |
| 20260506233518 | 8 | 0 | 0.0 | 0.0 | 0.03 | 3.76 | 3.73 | 95 | 1009.0 |
| 20260506233038 | 8 | 0 | 0.0 | 0.0 | 0.00 | 3.73 | 3.71 | 95 | 1008.7 |
| 20260506232520 | 8 | 0 | 0.0 | 0.0 | 0.00 | 3.73 | 3.71 | 95 | 1008.5 |
| 20260506232018 | 8 | 0 | 0.0 | 0.0 | 0.00 | 3.73 | 3.71 | 95 | 1008.4 |
| 20260506231547 | 8 | 0 | 0.0 | 1.6 | 0.00 | 3.73 | 3.71 | 95 | 1008.2 |
| 20260506231015 | 7 | 0 | 0.0 | 1.6 | 0.03 | 3.73 | 3.71 | 95 | 1008.0 |
| 20260506230517 | 8 | 18 | 0.0 | 1.6 | 0.03 | 3.73 | 3.71 | 95 | 1008.0 |
| 20260506230050 | 8 | 22 | 0.0 | 4.8 | 0.03 | 3.73 | 3.71 | 95 | 1008.1 |
| 20260506225522 | 8 | 0 | 0.0 | 4.8 | 0.03 | 3.73 | 3.71 | 95 | 1008.1 |
| 20260506225016 | 8 | 278 | 1.6 | 4.8 | 0.03 | 3.73 | 3.71 | 95 | 1008.0 |
| 20260506224535 | 8 | 0 | 0.0 | 3.2 | 0.03 | 3.73 | 3.71 | 95 | 1007.7 |
| 20260506224018 | 8 | 0 | 0.0 | 3.2 | 0.03 | 3.73 | 3.71 | 95 | 1007.8 |
| 20260506223516 | 8 | 283 | 0.0 | 3.2 | 0.05 | 3.73 | 3.71 | 95 | 1007.6 |
| 20260506223046 | 8 | 225 | 0.0 | 3.2 | 0.10 | 3.73 | 3.71 | 95 | 1007.7 |
| 20260506222520 | 8 | 247 | 0.0 | 3.2 | 0.10 | 3.73 | 3.71 | 95 | 1007.6 |
| 20260506222017 | 8 | 283 | 1.6 | 1.6 | 0.10 | 3.73 | 3.71 | 95 | 1007.5 |
| 20260506221537 | 8 | 245 | 0.0 | 4.8 | 0.13 | 3.73 | 3.71 | 95 | 1007.3 |
| 20260506221019 | 8 | 276 | 1.6 | 4.8 | 0.10 | 3.71 | 3.68 | 95 | 1007.2 |
| 20260506220521 | 9 | 295 | 1.6 | 4.8 | 0.10 | 3.71 | 3.68 | 95 | 1007.2 |
| 20260506220033 | 9 | 266 | 1.6 | 3.2 | 0.10 | 3.71 | 3.68 | 95 | 1006.9 |
| 20260506215523 | 9 | 288 | 1.6 | 3.2 | 0.10 | 3.78 | 3.68 | 95 | 1006.7 |
| 20260506215016 | 9 | 139 | 0.0 | 6.4 | 0.10 | 3.78 | 3.68 | 95 | 1006.4 |
| 20260506214536 | 9 | 120 | 1.6 | 6.4 | 0.10 | 3.78 | 3.68 | 95 | 1006.5 |
| 20260506214016 | 9 | 96 | 1.6 | 4.8 | 0.10 | 3.78 | 3.68 | 95 | 1006.6 |
| 20260506213520 | 9 | 100 | 0.0 | 6.4 | 0.08 | 3.76 | 3.66 | 95 | 1006.4 |
| 20260506213045 | 9 | 302 | 1.6 | 6.4 | 0.03 | 3.71 | 3.61 | 95 | 1006.4 |
| 20260506212517 | 10 | 268 | 0.0 | 6.4 | 0.05 | 3.71 | 3.61 | 95 | 1006.1 |
| 20260506212017 | 10 | 0 | 1.6 | 6.4 | 0.08 | 3.71 | 3.61 | 95 | 1006.1 |
| 20260506211547 | 10 | 0 | 1.6 | 11.3 | 0.13 | 3.68 | 3.58 | 95 | 1006.2 |
| 20260506211017 | 10 | 77 | 3.2 | 11.3 | 0.13 | 3.68 | 3.58 | 95 | 1006.1 |
| 20260506210517 | 11 | 77 | 3.2 | 11.3 | 0.15 | 3.68 | 3.58 | 94 | 1006.0 |
| 20260506210035 | 11 | 92 | 6.4 | 12.9 | 0.28 | 3.68 | 3.58 | 94 | 1006.1 |
| 20260506205518 | 12 | 127 | 3.2 | 12.9 | 0.51 | 3.73 | 3.58 | 94 | 1006.2 |
| 20260506205016 | 13 | 95 | 1.6 | 6.4 | 0.58 | 3.73 | 3.58 | 95 | 1006.1 |
| 20260506204545 | 13 | 224 | 1.6 | 8.0 | 0.66 | 3.73 | 3.58 | 95 | 1006.1 |
| 20260506204018 | 13 | 342 | 3.2 | 12.9 | 0.74 | 3.73 | 3.58 | 95 | 1006.0 |
| 20260506203516 | 13 | 235 | 3.2 | 12.9 | 0.79 | 3.73 | 3.58 | 95 | 1006.1 |
| 20260506203040 | 13 | 262 | 0.0 | 6.4 | 0.81 | 3.73 | 3.58 | 96 | 1006.1 |
| 20260506202518 | 14 | 212 | 1.6 | 6.4 | 0.84 | 3.71 | 3.56 | 96 | 1006.1 |
| 20260506202017 | 14 | 225 | 1.6 | 3.2 | 0.84 | 3.66 | 3.51 | 96 | 1006.0 |
| 20260506201538 | 14 | 234 | 1.6 | 3.2 | 0.86 | 3.61 | 3.45 | 96 | 1006.0 |
| 20260506201019 | 14 | 248 | 1.6 | 3.2 | 0.91 | 3.61 | 3.45 | 96 | 1006.0 |
| 20260506200516 | 14 | 282 | 1.6 | 6.4 | 0.97 | 3.56 | 3.40 | 96 | 1006.2 |
| 20260506200036 | 14 | 300 | 3.2 | 8.0 | 0.84 | 3.40 | 3.25 | 96 | 1006.1 |
| 20260506195517 | 14 | 68 | 3.2 | 17.7 | 0.66 | 3.20 | 3.05 | 96 | 1006.0 |
| 20260506195018 | 14 | 329 | 4.8 | 17.7 | 0.66 | 3.15 | 2.97 | 96 | 1006.0 |
| 20260506194537 | 14 | 285 | 3.2 | 17.7 | 0.58 | 3.05 | 2.90 | 96 | 1006.0 |
| 20260506194017 | 14 | 299 | 1.6 | 3.2 | 0.53 | 2.95 | 2.82 | 96 | 1006.2 |
| 20260506193516 | 14 | 0 | 0.0 | 4.8 | 0.53 | 2.95 | 2.79 | 96 | 1006.1 |
| 20260506193037 | 14 | 193 | 1.6 | 12.9 | 0.53 | 2.92 | 2.77 | 96 | 1006.0 |
| 20260506192517 | 14 | 206 | 3.2 | 12.9 | 0.51 | 2.87 | 2.72 | 96 | 1006.1 |
| 20260506192018 | 14 | 224 | 1.6 | 6.4 | 0.48 | 2.79 | 2.64 | 96 | 1006.2 |
| 20260506191543 | 14 | 93 | 1.6 | 6.4 | 0.46 | 2.74 | 2.59 | 96 | 1006.3 |
| 20260506191020 | 15 | 234 | 1.6 | 6.4 | 0.43 | 2.64 | 2.51 | 96 | 1006.4 |
| 20260506190525 | 15 | 225 | 1.6 | 6.4 | 0.43 | 2.59 | 2.44 | 96 | 1006.4 |
| 20260506190038 | 15 | 75 | 1.6 | 4.8 | 0.48 | 2.57 | 2.41 | 96 | 1006.5 |
| 20260506185519 | 14 | 215 | 0.0 | 4.8 | 0.51 | 2.54 | 2.39 | 96 | 1006.6 |
| 20260506185018 | 15 | 271 | 1.6 | 4.8 | 0.51 | 2.49 | 2.34 | 96 | 1006.7 |
| 20260506184537 | 15 | 204 | 1.6 | 4.8 | 0.48 | 2.44 | 2.29 | 96 | 1006.6 |
| 20260506184017 | 15 | 300 | 0.0 | 3.2 | 0.51 | 2.44 | 2.29 | 96 | 1006.7 |
| 20260506183517 | 15 | 0 | 0.0 | 6.4 | 0.51 | 2.41 | 2.26 | 96 | 1006.7 |
| 20260506183041 | 14 | 139 | 1.6 | 6.4 | 0.53 | 2.39 | 2.24 | 96 | 1006.8 |
| 20260506182519 | 14 | 230 | 0.0 | 4.8 | 0.53 | 2.36 | 2.21 | 96 | 1006.9 |
| 20260506182018 | 14 | 316 | 1.6 | 4.8 | 0.53 | 2.31 | 2.16 | 96 | 1007.0 |
| 20260506181532 | 15 | 276 | 0.0 | 4.8 | 0.51 | 2.26 | 2.11 | 96 | 1007.1 |
| 20260506181017 | 15 | 221 | 1.6 | 8.0 | 0.51 | 2.21 | 2.06 | 96 | 1007.0 |
| 20260506180516 | 15 | 210 | 1.6 | 8.0 | 0.51 | 2.16 | 2.01 | 96 | 1007.3 |
| 20260506180036 | 15 | 5 | 1.6 | 8.0 | 0.46 | 2.08 | 1.93 | 96 | 1007.2 |
| 20260506175519 | 15 | 332 | 1.6 | 8.0 | 0.46 | 2.03 | 1.88 | 96 | 1007.3 |
| 20260506175017 | 15 | 194 | 0.0 | 8.0 | 0.46 | 1.98 | 1.83 | 96 | 1007.3 |
| 20260506174531 | 15 | 283 | 3.2 | 6.4 | 0.48 | 1.96 | 1.80 | 96 | 1007.3 |
| 20260506174017 | 15 | 341 | 1.6 | 4.8 | 0.51 | 1.93 | 1.78 | 96 | 1007.3 |
| 20260506173518 | 15 | 323 | 1.6 | 6.4 | 0.51 | 1.88 | 1.73 | 96 | 1007.4 |
| 20260506173038 | 14 | 327 | 1.6 | 6.4 | 0.53 | 1.85 | 1.70 | 96 | 1007.5 |
| 20260506172521 | 14 | 283 | 1.6 | 4.8 | 0.56 | 1.83 | 1.68 | 96 | 1007.4 |
| 20260506172018 | 14 | 253 | 1.6 | 4.8 | 0.56 | 1.78 | 1.63 | 96 | 1007.5 |
| 20260506171539 | 14 | 333 | 1.6 | 4.8 | 0.58 | 1.75 | 1.60 | 96 | 1007.7 |
| 20260506171021 | 14 | 161 | 1.6 | 4.8 | 0.58 | 1.70 | 1.55 | 96 | 1007.7 |
| 20260506170522 | 14 | 309 | 0.0 | 4.8 | 0.64 | 1.65 | 1.47 | 96 | 1007.8 |
| 20260506170046 | 14 | 30 | 0.0 | 4.8 | 0.69 | 1.63 | 1.47 | 96 | 1007.9 |
| 20260506165521 | 14 | 227 | 1.6 | 4.8 | 0.69 | 1.57 | 1.42 | 96 | 1007.9 |
| 20260506165020 | 14 | 143 | 1.6 | 6.4 | 0.69 | 1.52 | 1.37 | 96 | 1008.0 |
| 20260506164534 | 14 | 245 | 1.6 | 6.4 | 0.69 | 1.47 | 1.32 | 96 | 1008.1 |
| 20260506164023 | 14 | 225 | 0.0 | 8.0 | 0.66 | 1.42 | 1.27 | 96 | 1008.0 |
| 20260506163517 | 14 | 224 | 1.6 | 8.0 | 0.64 | 1.37 | 1.22 | 96 | 1008.1 |
| 20260506163042 | 14 | 0 | 0.0 | 0.0 | 0.64 | 1.32 | 1.17 | 96 | 1008.1 |
| 20260506162523 | 14 | 0 | 0.0 | 0.0 | 0.64 | 1.27 | 1.12 | 96 | 1008.2 |
| 20260506162024 | 14 | 0 | 0.0 | 0.0 | 0.64 | 1.22 | 1.07 | 96 | 1008.1 |
| 20260506161540 | 14 | 0 | 0.0 | 0.0 | 0.61 | 1.17 | 1.02 | 96 | 1008.3 |
| 20260506161021 | 14 | 0 | 0.0 | 0.0 | 0.56 | 1.09 | 0.94 | 96 | 1008.2 |
| 20260506160522 | 14 | 0 | 0.0 | 0.0 | 0.51 | 1.02 | 0.86 | 95 | 1008.3 |
| 20260506160041 | 14 | 0 | 0.0 | 0.0 | 0.46 | 0.94 | 0.79 | 96 | 1008.3 |
| 20260506155522 | 14 | 0 | 0.0 | 0.0 | 0.41 | 0.86 | 0.71 | 96 | 1008.1 |
| 20260506155020 | 14 | 0 | 0.0 | 0.0 | 0.41 | 0.84 | 0.69 | 96 | 1008.3 |
| 20260506154541 | 14 | 0 | 0.0 | 0.0 | 0.38 | 0.79 | 0.64 | 96 | 1008.4 |
| 20260506154019 | 14 | 0 | 0.0 | 0.0 | 0.41 | 0.76 | 0.61 | 96 | 1008.3 |
| 20260506153519 | 14 | 0 | 0.0 | 0.0 | 0.43 | 0.74 | 0.58 | 95 | 1008.5 |
| 20260506153034 | 14 | 0 | 0.0 | 0.0 | 0.41 | 0.69 | 0.53 | 95 | 1008.6 |
| 20260506152518 | 14 | 0 | 0.0 | 0.0 | 0.38 | 0.64 | 0.48 | 95 | 1008.8 |
| 20260506152021 | 14 | 0 | 0.0 | 0.0 | 0.33 | 0.58 | 0.43 | 95 | 1008.9 |
| 20260506151537 | 14 | 0 | 0.0 | 0.0 | 0.30 | 0.56 | 0.41 | 96 | 1008.9 |
| 20260506151017 | 14 | 0 | 0.0 | 0.0 | 0.28 | 0.53 | 0.38 | 95 | 1008.9 |
| 20260506150518 | 14 | 0 | 0.0 | 0.0 | 0.28 | 0.51 | 0.36 | 95 | 1009.1 |
| 20260506150038 | 13 | 0 | 0.0 | 0.0 | 0.25 | 0.48 | 0.33 | 95 | 1009.1 |
| 20260506145521 | 13 | 0 | 0.0 | 0.0 | 0.23 | 0.46 | 0.30 | 95 | 1009.2 |
| 20260506145020 | 13 | 0 | 0.0 | 0.0 | 0.23 | 0.43 | 0.28 | 95 | 1009.3 |
| 20260506144545 | 13 | 0 | 0.0 | 0.0 | 0.20 | 0.41 | 0.25 | 95 | 1009.4 |
| 20260506144020 | 13 | 0 | 0.0 | 0.0 | 0.15 | 0.36 | 0.20 | 95 | 1009.4 |
| 20260506143518 | 13 | 0 | 0.0 | 0.0 | 0.13 | 0.30 | 0.15 | 95 | 1009.7 |
| 20260506143035 | 13 | 0 | 0.0 | 0.0 | 0.10 | 0.28 | 0.13 | 95 | 1009.7 |
| 20260506142520 | 14 | 0 | 0.0 | 0.0 | 0.08 | 0.25 | 0.10 | 95 | 1009.7 |
| 20260506142019 | 14 | 0 | 0.0 | 0.0 | 0.08 | 0.25 | 0.10 | 95 | 1009.5 |
| 20260506141535 | 13 | 0 | 0.0 | 0.0 | 0.08 | 0.25 | 0.10 | 95 | 1009.5 |
| 20260506141019 | 13 | 0 | 0.0 | 0.0 | 0.08 | 0.25 | 0.10 | 95 | 1009.4 |
| 20260506140520 | 13 | 0 | 0.0 | 0.0 | 0.08 | 0.23 | 0.08 | 95 | 1009.2 |
| 20260506140034 | 13 | 0 | 0.0 | 0.0 | 0.08 | 0.23 | 0.08 | 95 | 1009.3 |
| 20260506135519 | 13 | 0 | 0.0 | 0.0 | 0.08 | 0.23 | 0.08 | 95 | 1009.2 |
| 20260506135018 | 13 | 0 | 0.0 | 0.0 | 0.05 | 0.20 | 0.05 | 95 | 1009.2 |
| 20260506134537 | 13 | 0 | 0.0 | 0.0 | 0.05 | 0.20 | 0.05 | 95 | 1009.0 |
| 20260506134019 | 13 | 0 | 0.0 | 0.0 | 0.03 | 0.18 | 0.03 | 95 | 1009.1 |
| 20260506133519 | 13 | 0 | 0.0 | 0.0 | 0.03 | 0.18 | 0.03 | 95 | 1009.0 |
| 20260506133037 | 13 | 0 | 0.0 | 0.0 | 0.03 | 0.18 | 0.03 | 95 | 1009.0 |
| 20260506132519 | 13 | 0 | 0.0 | 0.0 | 0.03 | 0.18 | 0.03 | 95 | 1009.0 |
| 20260506132022 | 13 | 0 | 0.0 | 0.0 | 0.03 | 0.18 | 0.03 | 95 | 1008.9 |
| 20260506131537 | 13 | 0 | 0.0 | 0.0 | 0.03 | 0.18 | 0.03 | 95 | 1009.0 |
| 20260506131017 | 13 | 0 | 0.0 | 0.0 | 0.03 | 0.18 | 0.03 | 95 | 1009.1 |
| 20260506130520 | 13 | 0 | 0.0 | 0.0 | 0.00 | 0.15 | 0.00 | 95 | 1009.0 |
| 20260506130037 | 13 | 0 | 0.0 | 0.0 | 0.00 | 0.15 | 0.00 | 95 | 1009.3 |
| 20260506125517 | 13 | 0 | 0.0 | 0.0 | 0.00 | 0.15 | 0.00 | 95 | 1009.3 |
| 20260506125023 | 13 | 0 | 0.0 | 0.0 | 0.00 | 0.15 | 0.00 | 95 | 1009.5 |
| 20260506124536 | 13 | 0 | 0.0 | 0.0 | 0.00 | 0.15 | 0.00 | 95 | 1009.6 |
| 20260506124021 | 13 | 0 | 0.0 | 0.0 | 0.00 | 0.15 | 0.00 | 95 | 1009.7 |
| 20260506123521 | 13 | 0 | 0.0 | 0.0 | 0.00 | 0.15 | 0.00 | 95 | 1009.6 |
| 20260506123035 | 13 | 0 | 0.0 | 0.0 | 0.00 | 0.15 | 0.00 | 95 | 1010.0 |
| 20260506122516 | 12 | 0 | 0.0 | 1.6 | 0.00 | 0.15 | 0.00 | 95 | 1009.8 |
| 20260506122017 | 12 | 0 | 0.0 | 1.6 | 0.00 | 0.15 | 0.00 | 95 | 1009.7 |
| 20260506121538 | 12 | 247 | 0.0 | 1.6 | 0.00 | 0.15 | 0.00 | 95 | 1009.5 |
| 20260506121018 | 12 | 0 | 0.0 | 1.6 | 0.00 | 0.15 | 0.00 | 95 | 1009.5 |
| 20260506120518 | 12 | 246 | 0.0 | 1.6 | 0.00 | 0.15 | 0.00 | 95 | 1009.5 |
| 20260506120042 | 12 | 271 | 0.0 | 4.8 | 0.00 | 0.15 | 0.00 | 95 | 1009.6 |
| 20260506115520 | 12 | 271 | 1.6 | 4.8 | 0.00 | 0.18 | 0.00 | 95 | 1009.5 |
| 20260506115019 | 12 | 176 | 0.0 | 4.8 | 0.00 | 0.18 | 0.00 | 95 | 1009.0 |
| 20260506114534 | 12 | 207 | 1.6 | 4.8 | 0.00 | 0.18 | 0.00 | 95 | 1009.1 |
| 20260506114020 | 12 | 24 | 1.6 | 3.2 | 0.00 | 0.18 | 0.00 | 95 | 1009.1 |
| 20260506113519 | 12 | 101 | 1.6 | 3.2 | 0.00 | 0.18 | 0.00 | 95 | 1009.3 |
| 20260506113034 | 11 | 327 | 0.0 | 4.8 | 0.00 | 0.18 | 0.00 | 95 | 1009.4 |
| 20260506112518 | 11 | 327 | 1.6 | 4.8 | 0.00 | 0.18 | 0.00 | 95 | 1009.4 |
| 20260506112018 | 11 | 242 | 0.0 | 3.2 | 0.00 | 0.18 | 0.00 | 95 | 1009.4 |
| 20260506111538 | 11 | 245 | 1.6 | 3.2 | 0.00 | 0.18 | 0.00 | 95 | 1009.6 |
| 20260506111019 | 11 | 200 | 0.0 | 0.0 | 0.00 | 0.18 | 0.00 | 95 | 1009.5 |
| 20260506110518 | 11 | 0 | 0.0 | 0.0 | 0.00 | 0.18 | 0.00 | 95 | 1009.4 |
| 20260506110037 | 11 | 0 | 0.0 | 0.0 | 0.00 | 0.18 | 0.00 | 95 | 1009.3 |
| 20260506105520 | 11 | 0 | 0.0 | 0.0 | 0.00 | 0.20 | 0.00 | 95 | 1009.3 |
| 20260506105020 | 11 | 0 | 0.0 | 1.6 | 0.00 | 0.20 | 0.00 | 95 | 1009.4 |
| 20260506104539 | 11 | 0 | 0.0 | 1.6 | 0.00 | 0.20 | 0.00 | 95 | 1009.1 |
| 20260506104018 | 11 | 0 | 0.0 | 1.6 | 0.00 | 0.20 | 0.00 | 95 | 1009.1 |
| 20260506103518 | 11 | 165 | 0.0 | 1.6 | 0.00 | 0.20 | 0.00 | 95 | 1009.2 |
| 20260506103046 | 11 | 172 | 0.0 | 1.6 | 0.00 | 0.20 | 0.00 | 95 | 1009.2 |
| 20260506102520 | 11 | 171 | 0.0 | 1.6 | 0.00 | 0.20 | 0.00 | 95 | 1009.1 |
| 20260506102020 | 11 | 171 | 0.0 | 1.6 | 0.00 | 0.20 | 0.00 | 95 | 1009.0 |
| 20260506101536 | 11 | 0 | 0.0 | 1.6 | 0.00 | 0.20 | 0.00 | 95 | 1009.2 |
| 20260506101024 | 11 | 170 | 0.0 | 1.6 | 0.00 | 0.20 | 0.00 | 95 | 1009.1 |
| 20260506100522 | 11 | 0 | 0.0 | 0.0 | 0.00 | 0.20 | 0.00 | 95 | 1009.0 |
| 20260506100038 | 11 | 0 | 0.0 | 0.0 | 0.00 | 0.20 | 0.00 | 95 | 1009.2 |
| 20260506095521 | 11 | 0 | 0.0 | 0.0 | 0.00 | 0.20 | 0.00 | 95 | 1009.1 |
| 20260506095020 | 11 | 0 | 0.0 | 0.0 | 0.00 | 0.20 | 0.00 | 95 | 1009.1 |
| 20260506094539 | 11 | 164 | 0.0 | 0.0 | 0.00 | 0.20 | 0.00 | 95 | 1009.2 |
| 20260506094018 | 11 | 0 | 0.0 | 0.0 | 0.00 | 0.20 | 0.00 | 95 | 1009.1 |
| 20260506093522 | 11 | 164 | 0.0 | 0.0 | 0.00 | 0.20 | 0.00 | 95 | 1009.0 |
| 20260506093037 | 11 | 0 | 0.0 | 0.0 | 0.00 | 0.20 | 0.00 | 95 | 1009.0 |
| 20260506092518 | 11 | 0 | 0.0 | 0.0 | 0.00 | 0.20 | 0.00 | 95 | 1009.2 |
| 20260506092018 | 11 | 0 | 0.0 | 0.0 | 0.00 | 0.20 | 0.00 | 95 | 1009.3 |
| 20260506091537 | 11 | 0 | 0.0 | 0.0 | 0.00 | 0.20 | 0.00 | 95 | 1009.1 |
| 20260506091019 | 11 | 0 | 0.0 | 0.0 | 0.00 | 0.20 | 0.00 | 95 | 1009.2 |
| 20260506090519 | 11 | 0 | 0.0 | 0.0 | 0.00 | 0.20 | 0.00 | 95 | 1009.3 |
| 20260506090044 | 11 | 0 | 0.0 | 0.0 | 0.00 | 0.20 | 0.00 | 95 | 1009.3 |
| 20260506085521 | 11 | 0 | 0.0 | 0.0 | 0.00 | 0.20 | 0.00 | 95 | 1009.5 |
| 20260506085019 | 11 | 0 | 0.0 | 0.0 | 0.00 | 0.20 | 0.00 | 95 | 1009.3 |
| 20260506084541 | 11 | 0 | 0.0 | 0.0 | 0.00 | 0.20 | 0.00 | 95 | 1009.5 |
| 20260506084019 | 11 | 0 | 0.0 | 0.0 | 0.00 | 0.20 | 0.00 | 95 | 1009.6 |
| 20260506083518 | 11 | 0 | 0.0 | 0.0 | 0.00 | 0.20 | 0.00 | 95 | 1009.6 |
| 20260506083036 | 11 | 164 | 0.0 | 0.0 | 0.00 | 0.20 | 0.00 | 94 | 1009.7 |
| 20260506082515 | 11 | 0 | 0.0 | 0.0 | 0.00 | 0.20 | 0.00 | 95 | 1009.6 |
| 20260506082018 | 11 | 0 | 0.0 | 0.0 | 0.00 | 0.20 | 0.00 | 94 | 1009.8 |
| 20260506081541 | 11 | 0 | 0.0 | 0.0 | 0.00 | 0.20 | 0.00 | 94 | 1009.7 |
| 20260506081017 | 11 | 0 | 0.0 | 0.0 | 0.00 | 0.20 | 0.00 | 94 | 1009.8 |
| 20260506080519 | 11 | 0 | 0.0 | 0.0 | 0.00 | 0.20 | 0.00 | 94 | 1010.0 |
| 20260506073518 | 12 | 0 | 0.0 | 0.0 | 0.00 | 0.20 | 0.00 | 94 | 1009.9 |
| 20260506073043 | 12 | 0 | 0.0 | 0.0 | 0.00 | 0.20 | 0.00 | 94 | 1010.0 |
| 20260506072518 | 12 | 0 | 0.0 | 0.0 | 0.00 | 0.20 | 0.00 | 94 | 1010.1 |
| 20260506072017 | 12 | 0 | 0.0 | 0.0 | 0.00 | 0.20 | 0.00 | 94 | 1010.0 |
| 20260506071535 | 12 | 0 | 0.0 | 0.0 | 0.00 | 0.20 | 0.00 | 94 | 1010.0 |
| 20260506071019 | 12 | 0 | 0.0 | 0.0 | 0.00 | 0.20 | 0.00 | 94 | 1010.0 |
| 20260506070517 | 13 | 164 | 0.0 | 0.0 | 0.00 | 0.20 | 0.00 | 94 | 1009.9 |
| 20260506062018 | 13 | 0 | 0.0 | 0.0 | 0.00 | 0.20 | 0.00 | 93 | 1010.2 |
| 20260506061548 | 13 | 0 | 0.0 | 0.0 | 0.00 | 0.20 | 0.00 | 93 | 1010.3 |
| 20260506061019 | 14 | 0 | 0.0 | 0.0 | 0.00 | 0.20 | 0.00 | 92 | 1010.1 |
| 20260506060523 | 14 | 0 | 0.0 | 1.6 | 0.00 | 0.20 | 0.00 | 92 | 1010.1 |
| 20260506051018 | 15 | 281 | 0.0 | 14.5 | 0.00 | 0.20 | 0.00 | 90 | 1010.6 |
| 20260506050529 | 15 | 28 | 4.8 | 14.5 | 0.00 | 0.20 | 0.00 | 90 | 1010.6 |
| 20260506045020 | 13 | 77 | 1.6 | 3.2 | 0.00 | 0.20 | 0.00 | 94 | 1010.6 |
| 20260506044546 | 13 | 0 | 0.0 | 1.6 | 0.00 | 0.20 | 0.00 | 94 | 1010.5 |
| 20260506044021 | 13 | 331 | 0.0 | 1.6 | 0.00 | 0.20 | 0.00 | 94 | 1010.7 |
| 20260506043519 | 13 | 0 | 0.0 | 3.2 | 0.00 | 0.20 | 0.00 | 94 | 1010.7 |
| 20260506043041 | 13 | 0 | 0.0 | 3.2 | 0.00 | 0.20 | 0.00 | 94 | 1010.6 |
| 20260506042519 | 13 | 337 | 0.0 | 1.6 | 0.00 | 0.20 | 0.00 | 94 | 1010.7 |
| 20260506042018 | 13 | 0 | 0.0 | 1.6 | 0.00 | 0.20 | 0.00 | 94 | 1010.5 |
| 20260506041536 | 13 | 0 | 0.0 | 0.0 | 0.00 | 0.20 | 0.00 | 95 | 1010.4 |